Location: ???????
(60.4260°N, 46.9069°E)
Time: 09:22:05
(UTC+00:00)

USA 234 - Pass Details

Date: 30 March 2020
Orbit: 1102 x 1106 km, 123.0° (Epoch: 14 May)

Event Time Altitude Azimuth Distance (km) Brightness Sun altitude
Rises 00:10:52 0° 161° (SSE) 3,910 6.0 -15.5°
Reaches altitude 10° 00:13:54 10° 174° (S) 2,956 5.2 -15.2°
Maximum altitude 00:19:01 24° 226° (SW) 2,107 4.1 -14.7°
Drops below altitude 10° 00:24:09 10° 278° (W) 2,967 5.1 -14.2°
Sets 00:27:13 0° 292° (WNW) 3,928 5.8 -13.9°
